Weather reports worldwide

Advertisment
Marham, United Kingdom (3482): temperature & dewpoint: 16.07.2019 03:00:00 - 22.07.2019 03:00:00 (BST)Marham, United Kingdom (3482): temperature -20cm & temperature -100cm: 16.07.2019 03:00:00 - 22.07.2019 03:00:00 (BST)Marham, United Kingdom (3482): wind speed & gusts: 16.07.2019 03:00:00 - 22.07.2019 03:00:00 (BST)Marham, United Kingdom (3482): wind direction: 16.07.2019 03:00:00 - 22.07.2019 03:00:00 (BST)Marham, United Kingdom (3482): reduced air pressure: 16.07.2019 03:00:00 - 22.07.2019 03:00:00 (BST)Marham, United Kingdom (3482): visibility: 16.07.2019 03:00:00 - 22.07.2019 03:00:00 (BST)Marham, United Kingdom (3482): precipitation: 16.07.2019 03:00:00 - 22.07.2019 03:00:00 (BST)
Date & Time tt [°C] td [°C] tt -20cm [°C] tt -100cm [°C] ff [km/h] ff [kn] fx [km/h] fx [kn] dd ppp [hPa] vv [km] rr [mm]
22.07.2019 03:00:00 16,0 12,5 - - 21 11 - - S 1019,2 26 -
22.07.2019 02:00:00 16,6 12,0 - - 21 11 - - S 1019,6 24 0,0
22.07.2019 01:00:00 17,5 12,2 - - 21 11 - - S 1019,6 10 0,0
22.07.2019 00:00:00 17,6 13,0 - - 16 9 - - SSW 1020,0 10 0,0
21.07.2019 23:00:00 18,3 13,3 - - 16 9 - - S 1020,1 10 0,0
21.07.2019 22:00:00 18,6 13,4 - - 13 7 - - S 1020,2 10 0,0
21.07.2019 21:00:00 19,7 13,5 - - 13 7 - - SSW 1019,8 10 0,0
21.07.2019 20:00:00 21,4 13,1 - - 13 7 - - SSW 1019,7 30 0,0
21.07.2019 19:00:00 22,0 12,7 - - 16 9 - - SW 1019,5 30 0,0
21.07.2019 18:00:00 22,3 13,2 - - 18 10 - - SW 1019,6 10 0,0
21.07.2019 17:00:00 21,9 12,4 - - 22 12 - - SW 1020,0 30 0,0
21.07.2019 16:00:00 22,2 12,4 - - 24 13 - - WSW 1020,2 30 0,0
21.07.2019 15:00:00 22,2 11,5 - - 28 15 - - SW 1020,1 30 0,0
21.07.2019 14:00:00 21,9 11,2 - - 22 12 - - SW 1020,1 30 0,0
21.07.2019 13:00:00 22,1 12,0 - - 21 11 - - SW 1020,3 10 0,0
21.07.2019 12:00:00 21,1 11,8 - - 21 11 - - SW 1019,9 30 0,0
21.07.2019 11:00:00 19,5 13,0 - - 16 9 - - SW 1019,9 10 0,0
21.07.2019 10:00:00 18,5 13,5 17,4 16,2 13 7 - - SW 1019,6 10 0,0
21.07.2019 09:00:00 16,0 13,3 - - 13 7 - - SSW 1019,3 21 0,0
21.07.2019 08:00:00 14,0 12,4 - - 11 6 - - SSW 1018,8 20 0,0
21.07.2019 07:00:00 13,1 12,1 - - 8 4 - - S 1018,3 10 0,0
21.07.2019 06:00:00 11,6 10,9 - - 8 4 - - S 1017,6 15 0,0
21.07.2019 05:00:00 11,1 10,1 - - 8 4 - - SW 1016,8 17 0,0
21.07.2019 04:00:00 11,1 9,8 - - 5 3 - - WSW 1016,2 21 0,0
21.07.2019 03:00:00 11,0 9,5 - - 9 5 - - WSW 1015,9 22 0,0
21.07.2019 02:00:00 11,0 9,4 - - 11 6 - - WSW 1015,4 23 0,0
21.07.2019 01:00:00 12,6 9,6 - - 11 6 - - W 1015,0 26 0,0
21.07.2019 00:00:00 14,4 10,8 - - 13 7 - - W 1014,5 26 0,0
20.07.2019 23:00:00 16,5 11,8 - - 13 7 - - W 1013,7 26 0,0
20.07.2019 22:00:00 17,1 12,0 - - 16 9 - - WNW 1012,9 10 0,0
20.07.2019 21:00:00 17,6 12,8 - - 16 9 - - W 1011,7 25 0,0
20.07.2019 20:00:00 18,7 15,5 - - 13 7 - - W 1010,6 26 0,0
20.07.2019 19:00:00 18,0 16,0 - - 11 6 - - WSW 1009,6 21 0,2
20.07.2019 18:00:00 17,8 15,6 - - 15 8 - - WNW 1008,9 22 1,8
20.07.2019 17:00:00 22,6 13,8 - - 35 19 48 26 WSW 1007,5 10 0,0
20.07.2019 16:00:00 23,2 13,4 - - 35 19 50 27 WSW 1006,8 10 0,0
20.07.2019 15:00:00 23,3 13,6 - - 34 18 52 28 WSW 1006,2 10 0,0
20.07.2019 14:00:00 22,4 13,5 - - 35 19 48 26 WSW 1005,8 10 0,0
20.07.2019 13:00:00 22,4 14,9 - - 31 17 52 28 SW 1005,3 10 0,4
20.07.2019 12:00:00 20,6 14,6 - - 31 17 - - SW 1004,9 10 0,0
20.07.2019 11:00:00 19,6 16,2 - - 28 15 - - SSW 1004,9 26 0,0
20.07.2019 10:00:00 18,9 16,2 17,5 16,2 24 13 - - SSW 1004,8 26 0,0
20.07.2019 09:00:00 17,7 15,9 - - 21 11 - - S 1004,8 24 0,0
20.07.2019 08:00:00 17,1 16,0 - - 22 12 - - S 1004,9 20 0,0
20.07.2019 07:00:00 16,4 15,8 - - 18 10 - - S 1004,7 10 0,0
20.07.2019 06:00:00 15,9 15,2 - - 15 8 - - S 1005,1 21 0,0
20.07.2019 05:00:00 16,3 15,7 - - 16 9 - - S 1005,0 14 0,2
20.07.2019 04:00:00 17,0 16,6 - - 18 10 - - S 1005,5 7 1,6
20.07.2019 03:00:00 17,2 16,6 - - 13 7 - - S 1006,2 5 0,0
20.07.2019 02:00:00 17,3 16,6 - - 16 9 - - S 1006,6 9 0,0
20.07.2019 01:00:00 17,6 16,8 - - 21 11 - - S 1007,1 11 0,2
20.07.2019 00:00:00 17,7 16,9 - - 18 10 - - S 1007,1 12 0,0
19.07.2019 23:00:00 17,6 17,1 - - 21 11 - - S 1007,5 10 0,0
19.07.2019 22:00:00 17,4 16,9 - - 18 10 - - S 1008,0 10 0,6
19.07.2019 21:00:00 17,4 16,7 - - 16 9 - - S 1008,3 7 0,4
19.07.2019 20:00:00 17,6 16,7 - - 16 9 - - S 1008,3 9 1,2
19.07.2019 19:00:00 18,7 15,9 - - 22 12 - - S 1008,4 10 0,0
19.07.2019 18:00:00 18,6 15,4 - - 22 12 - - S 1008,8 10 0,0
19.07.2019 17:00:00 18,6 15,0 - - 24 13 - - S 1009,0 20 0,0
19.07.2019 16:00:00 18,5 14,4 - - 26 14 - - S 1009,6 10 0,0
19.07.2019 15:00:00 18,8 15,3 - - 26 14 - - S 1009,9 10 0,0
19.07.2019 14:00:00 17,8 14,0 - - 28 15 - - S 1010,5 15 0,4
19.07.2019 13:00:00 17,2 14,2 - - 15 8 - - S 1010,9 10 0,2
19.07.2019 12:00:00 18,0 12,1 - - 24 13 - - SSW 1011,3 10 0,0
19.07.2019 11:00:00 18,2 13,1 - - 18 10 - - SSW 1011,5 10 0,0
19.07.2019 10:00:00 16,4 12,8 17,7 16,2 15 8 - - S 1011,8 10 0,0
19.07.2019 09:00:00 15,2 12,3 - - 11 6 - - S 1012,0 10 0,0
19.07.2019 08:00:00 13,8 11,7 - - 8 4 - - S 1012,0 10 0,0
19.07.2019 07:00:00 12,6 11,1 - - 9 5 - - S 1012,0 10 0,0
19.07.2019 06:00:00 10,9 10,2 - - 8 4 - - SSE 1011,8 10 0,0
19.07.2019 05:00:00 10,7 9,2 - - 5 3 - - SSE 1011,8 10 0,0
19.07.2019 04:00:00 11,0 9,5 - - 5 3 - - SSE 1012,1 10 0,0
19.07.2019 03:00:00 11,3 9,4 - - 8 4 - - S 1012,0 20 0,0
19.07.2019 02:00:00 12,9 10,5 - - 5 3 - - S 1011,9 23 0,0
19.07.2019 01:00:00 13,3 10,6 - - 5 3 - - SW 1011,9 10 0,0
19.07.2019 00:00:00 14,2 11,0 - - 5 3 - - SSW 1011,5 10 0,0
18.07.2019 23:00:00 14,8 11,0 - - 4 2 - - S 1011,3 10 0,0
18.07.2019 22:00:00 16,8 11,0 - - 4 2 - - SSW 1011,1 10 0,0
18.07.2019 21:00:00 18,3 11,2 - - 5 3 - - WSW 1010,5 10 0,0
18.07.2019 20:00:00 19,7 10,4 - - 9 5 - - WNW 1010,1 20 0,0
18.07.2019 19:00:00 20,6 9,5 - - 15 8 - - W 1009,7 20 0,0
18.07.2019 18:00:00 21,6 10,6 - - 18 10 - - W 1009,4 10 0,0
18.07.2019 17:00:00 21,1 10,6 - - 22 12 - - W 1009,2 10 0,0
18.07.2019 16:00:00 21,8 13,4 - - 21 11 - - W 1008,9 10 0,0
18.07.2019 15:00:00 19,9 14,4 - - 13 7 - - WNW 1009,1 10 0,0
18.07.2019 14:00:00 19,0 15,6 - - 8 4 - - WNW 1009,1 20 0,0
18.07.2019 13:00:00 18,5 15,4 - - 18 10 - - WNW 1008,8 10 0,2
18.07.2019 12:00:00 17,6 15,8 - - 16 9 - - WSW 1008,7 4,0 0,0
18.07.2019 11:00:00 17,7 15,9 - - 13 7 - - WSW 1008,5 10 0,0
18.07.2019 10:00:00 17,1 16,2 18,0 16,2 16 9 - - SW 1008,5 7 0,0
18.07.2019 09:00:00 15,7 15,1 - - 16 9 - - SW 1008,7 7 0,0
18.07.2019 08:00:00 15,0 14,5 - - 16 9 - - SSW 1008,5 2,7 2,4
18.07.2019 07:00:00 15,4 14,1 - - 16 9 - - SW 1008,6 4,0 0,0
18.07.2019 06:00:00 15,8 13,7 - - 9 5 - - SSW 1008,6 10 0,0
18.07.2019 05:00:00 15,2 13,1 - - 9 5 - - S 1008,9 10 0,0
18.07.2019 04:00:00 15,9 13,5 - - 9 5 - - SSW 1009,1 10 0,0
18.07.2019 03:00:00 15,6 13,8 - - 11 6 - - S 1009,6 10 0,0
18.07.2019 02:00:00 16,6 14,3 - - 8 4 - - S 1010,0 10 0,0
18.07.2019 01:00:00 17,1 13,9 - - 2 1 - - NNW 1010,6 10 0,0
18.07.2019 00:00:00 18,4 13,2 - - 13 7 - - WNW 1010,8 10 0,0
17.07.2019 23:00:00 19,4 13,8 - - 5 3 - - SSW 1010,5 10 0,0
17.07.2019 22:00:00 20,4 13,3 - - 4 2 - - SSW 1010,5 12 0,0
17.07.2019 21:00:00 21,3 12,6 - - 8 4 - - W 1010,5 10 0,0
17.07.2019 20:00:00 22,5 9,2 - - 13 7 - - SSE 1010,3 10 0,0
17.07.2019 19:00:00 23,5 8,7 - - 16 9 - - SSE 1010,7 10 0,0
17.07.2019 18:00:00 24,5 7,4 - - 21 11 - - S 1011,0 10 0,0
17.07.2019 17:00:00 24,5 8,8 - - 22 12 - - SSW 1011,4 10 0,0
17.07.2019 16:00:00 24,7 10,5 - - 22 12 - - S 1011,8 15 0,0
17.07.2019 15:00:00 25,0 10,2 - - 22 12 - - SSW 1012,2 10 0,0
17.07.2019 14:00:00 25,2 12,3 - - 21 11 - - SW 1012,6 10 0,0
17.07.2019 13:00:00 25,4 11,9 - - 16 9 - - SSW 1013,2 10 0,0
17.07.2019 12:00:00 24,0 13,1 - - 15 8 - - SW 1013,8 15 0,0
17.07.2019 11:00:00 23,6 14,2 - - 11 6 - - SW 1014,2 10 0,0
17.07.2019 10:00:00 21,8 13,7 17,9 16,2 5 3 - - WSW 1014,5 10 0,0
17.07.2019 09:00:00 19,8 14,8 - - 8 4 - - SSW 1014,9 10 0,0
17.07.2019 08:00:00 17,3 14,1 - - 9 5 - - SSW 1014,9 9 0,0
17.07.2019 07:00:00 15,6 13,6 - - 8 4 - - S 1015,0 9 0,0
17.07.2019 06:00:00 15,3 13,4 - - 8 4 - - S 1015,1 10 0,0
17.07.2019 05:00:00 15,5 13,6 - - 8 4 - - SSE 1015,3 10 0,0
17.07.2019 04:00:00 15,1 13,1 - - 4 2 - - S 1015,5 10 0,0
17.07.2019 03:00:00 17,1 13,7 - - 5 3 - - SE 1015,8 15 0,0
17.07.2019 02:00:00 17,7 13,4 - - 8 4 - - SE 1016,3 10 0,0
17.07.2019 01:00:00 18,5 12,9 - - 13 7 - - SE 1016,7 10 0,0
17.07.2019 00:00:00 18,9 12,7 - - 11 6 - - SE 1017,0 12 0,0
16.07.2019 23:00:00 19,2 12,9 - - 9 5 - - ESE 1017,3 10 0,0
16.07.2019 22:00:00 20,0 13,2 - - 13 7 - - ESE 1017,3 10 0,0
16.07.2019 21:00:00 20,5 13,2 - - 15 8 - - E 1017,1 15 0,0
16.07.2019 20:00:00 21,9 12,5 - - 9 5 - - ENE 1017,1 15 0,0
16.07.2019 19:00:00 22,4 13,1 - - 9 5 - - NNE 1017,0 10 0,0
16.07.2019 18:00:00 23,7 11,4 - - 9 5 - - N 1016,9 10 0,0
16.07.2019 17:00:00 24,5 10,2 - - 4 2 - - NNE 1017,0 10 0,0
16.07.2019 16:00:00 24,2 11,2 - - 5 3 - - NNE 1017,5 10 0,0
16.07.2019 15:00:00 25,2 11,4 - - 9 5 - - WNW 1017,9 10 0,0
16.07.2019 14:00:00 24,2 11,8 - - 11 6 - - NNW 1018,2 20 0,0
16.07.2019 13:00:00 24,0 12,7 - - 9 5 - - WNW 1018,4 10 0,0
16.07.2019 12:00:00 23,6 14,6 - - 13 7 - - WNW 1018,8 20 0,0
16.07.2019 11:00:00 21,3 13,4 - - 11 6 - - WNW 1019,0 10 0,0
16.07.2019 10:00:00 20,0 13,3 17,2 16,2 8 4 - - W 1019,4 10 0,0
16.07.2019 09:00:00 17,0 11,9 - - 13 7 - - W 1019,8 10 0,0
16.07.2019 08:00:00 16,5 12,5 - - 13 7 - - W 1019,9 10 0,0
16.07.2019 07:00:00 11,4 10,8 - - 4 2 - - SSW 1019,9 15 0,0
16.07.2019 06:00:00 10,0 9,4 - - 8 4 - - SSE 1019,7 10 0,0
16.07.2019 05:00:00 9,3 8,7 - - 4 2 - - S 1019,9 10 0,0
16.07.2019 04:00:00 9,4 8,7 - - 4 2 - - SSE 1020,1 10 0,0
16.07.2019 03:00:00 9,9 9,3 - - 4 2 - - SSE 1020,4 13 0,0

tt = temperature
td = dewpoint
tt -20cm = temperature -20cm
tt -100cm = temperature -100cm
ff = wind speed
fx = gusts
dd = wind direction
ppp = reduced air pressure
vv = visibility
rr = precipitation

Next stations